Weather History for Southeast Shoal, ON

Change the Weather History Date:

Sunday, November 11, 2012

  Actual Average Record
Temperature  
Mean Temperature 56 °F -  
Max Temperature 59 °F - - ()
Min Temperature 54 °F - - ()
Degree Days  
Heating Degree Days 8    
Growing Degree Days 6 (Base 50)    
Moisture  
Dew Point 43 °F    
Average Humidity 60    
Maximum Humidity 67    
Minimum Humidity 42    
Precipitation  
Precipitation 0.00 in - - ()
Sea Level Pressure  
Sea Level Pressure 30.12 in    
Wind  
Wind Speed - ()    
Max Wind Speed -    
Max Gust Speed -    
T = Trace of Precipitation, MM = Missing Value Source: Averaged Metar Reports

Daily Weather History Graph

Daily Weather History Graph

Search for Another Location

Airport:

Trip Planner

Search our weather history database for the weather conditions in past years. The results will help you decide how hot, cold, wet, or windy it might be!

Date:

Astronomy

Nov. 11, 2012 Rise Set
Actual Time 7:15 AM EST 5:12 PM EST
Civil Twilight 6:45 AM EST 5:42 PM EST
Nautical Twilight 6:11 AM EST 6:15 PM EST
Astronomical Twilight 5:39 AM EST 6:48 PM EST
Moon 4:25 AM EST (11/11) 3:36 PM EST (11/11)
Length of Visible Light 10h 56m
Length of Day
9h 57m
Waning Crescent, 7% of the Moon is Illuminated
Nov 11
Waning Crescent
Nov 13
New
Nov 20
First Quarter
Nov 28
Full
Dec 6
Last Quarter

Hourly Weather History & Observations

Time (EST) Temp. Dew Point Humidity Pressure Visibility Wind Dir Wind Speed Gust Speed Precip Events Conditions
12:00 AM 56.7 °F 45.3 °F 66% 30.09 in - North - - N/A   Unknown
1:00 AM 56 °F 45 °F 58% 30.09 in - Calm Calm - -  
1:00 AM 56.1 °F 45.3 °F 67% 30.09 in - North - - N/A   Unknown
2:00 AM 56.3 °F 45.0 °F 66% 30.10 in - North - - N/A   Unknown
3:00 AM 55.9 °F 44.1 °F 64% 30.12 in - North - - N/A   Unknown
4:00 AM 55.2 °F 43.7 °F 65% 30.13 in - North - - N/A   Unknown
5:00 AM 54.7 °F 43.7 °F 66% 30.15 in - North - - N/A   Unknown
6:00 AM 54.5 °F 43.5 °F 66% 30.17 in - North - - N/A   Unknown
7:00 AM 55 °F 43 °F 53% 30.18 in - Calm Calm - -  
7:00 AM 55.0 °F 42.8 °F 63% 30.18 in - North - - N/A   Unknown
8:00 AM 55.4 °F 42.6 °F 62% 30.19 in - North - - N/A   Unknown
9:00 AM 54.3 °F 42.6 °F 65% 30.19 in - North - - N/A   Unknown
10:00 AM 54.7 °F 43.0 °F 65% 30.19 in - North - - N/A   Unknown
11:00 AM 55.2 °F 43.5 °F 65% 30.19 in - North - - N/A   Unknown
12:00 PM 55.4 °F 44.4 °F 67% 30.18 in - North - - N/A   Unknown
1:00 PM 57 °F 45 °F 54% 30.15 in - Calm Calm - -  
1:00 PM 56.8 °F 44.8 °F 64% 30.15 in - North - - N/A   Unknown
2:00 PM 56.3 °F 44.6 °F 65% 30.12 in - North - - N/A   Unknown
3:00 PM 58.3 °F 42.4 °F 56% 30.12 in - North - - N/A   Unknown
4:00 PM 59.7 °F 41.2 °F 50% 30.10 in - North - - N/A   Unknown
5:00 PM 58.6 °F 42.1 °F 54% 30.10 in - North - - N/A   Unknown
6:00 PM 58.5 °F 41.9 °F 54% 30.10 in - North - - N/A   Unknown
7:00 PM 58 °F 41 °F 42% 30.08 in - Calm Calm - -  
7:00 PM 58.3 °F 41.2 °F 53% 30.08 in - North - - N/A   Unknown
8:00 PM 57.9 °F 41.5 °F 54% 30.06 in - North - - N/A   Unknown
9:00 PM 56.7 °F 42.4 °F 59% 30.05 in - North - - N/A   Unknown
10:00 PM 56.3 °F 42.4 °F 60% 30.04 in - North - - N/A   Unknown
11:00 PM 57.0 °F 41.7 °F 57% 30.02 in - North - - N/A   Unknown